Tracking 17142 objects as of 28-May-2015
HD Live streaming from Space Station

EUTE 7A (EUTE W3A)

Track EUTE 7A (EUTE W3A) now!
EUTE 7A (EUTE W3A) is classified as:


NORAD ID: 28187
Int'l Code: 2004-008A
Perigee: 35,774.9 km
Apogee: 35,811.6 km
Inclination: 0.1 °
Period: 1,436.1 minutes
Semi major axis: 42164 km
RCS: 29.9526 m2 (large)
Launch date: March 15, 2004
Source: European Telecommunications Satellite Organization (EUTE)

58 Ku-band transponders; covers whole of sub-Saharan Africa and provides connectivity to Europe and Middle East.
Your satellite tracking list
Your tracking list is empty





NASA's NSSDC Master Catalog

Two Line Element Set (TLE):
1 28187U 04008A   15148.00906299  .00000046  00000-0  00000+0 0  9991
2 28187 000.0672 005.0568 0004346 095.1816 155.2556 01.00273477 41087

Source of the keplerian elements: AFSPC

N2YO: 386